SL-24 DEB, 29256

Orbit data source: Space-Track

SL-24 DEB, 29256 is space debris in LEO originally from a launch on Wed, 12 Jul 2006 UTC launched from the Orenburg, Russia (OREN). Debris objects in space refer to the collection of defunct objects orbiting the Earth. Examples of debris include non-operational satellites, rocket bodies, and fragments generated from explosions, collisions, or faulty payload assembly.

Loading next visibility...
Identifier
29256, 2006-029C
Orbit
LEO
Country
Flag of CISCIS
Related business
Manufacturer
Yuzhnoe
Mission
Spacecraft
Bus & Motor
15A18-BR, Unknown motor
Mass
~1,000 kg wet, ~1,000 kg dry
Launch date (UTC)
2006-07-12 (20 years ago)
Launch vehicle
Unknown
Launch site
Orenburg, Russia (OREN)
Object type
Payload
Rocket body
Debris
Shape & HBR
Cone, 1.5 m
Radar Cross Section
3.971 m², Large (>1 m²)

Expand to show TLE details & history
Last TLE update: 1 day ago

TLE from 1 day ago
0 SL-24 DEB
1 29256U 06029C   26173.47253552 -.00000037  00000-0  21285-4 0  9996
2 29256  64.5776  14.4575 0822442 267.2672  83.4061 13.35137060971357
Epoch: 2026-06-22T11:20Z
TLE epoch observation values (Epoch: 2026-06-22T11:20:27.068Z)
Latitude
-0.00003°
Longitude
-66.31326°
Altitude
1,109.011 km
Speed
7.308 km/s
True Right ascension
00h 57m 49s
True Declination
0° 00' 00"
Sunlit
Object was in daylight at epoch
Visualization orbit readout
Latitude
Unknown
Longitude
Unknown
Altitude
Unknown
Speed
Unknown
Apparent Right ascension
Unknown
Apparent Declination
Unknown
Sunlit
N/A
Visualization observer readout
Local Sidereal Time
07:32:27
Azimuth
Unknown
Elevation
Unknown
Doppler factor
Unknown
Orbital elements
Apogee altitude
1,743.311 km
Perigee altitude
508.946 km
Semi-major axis
7,504.266 km
Eccentricity
0.08224
Inclination
64.5776°
RAAN
14.4575°
Arg. of periapsis
267.2672°
True anomaly
92.83721°
Mean anomaly
83.4061°
Eccentric anomaly
88.1158°
Mean motion
3.33873 °/min
Orbital period
107.83 mins
BSTAR
0.000021285
Loading maneuver chart data...
Computing Atmospheric mass density...
Loading historical data...
Loading historical data...
Loading historical data...
Loading historical data...
Loading historical data...
Loading historical data...
Loading historical data...

Documentation

Showing up to 5 results
|